This is the latest recevied weather packets stored in our database for station/object DL1SEW-6. If no packets are shown the sender has not sent any weather packets the latest 10 day(s).
| Time | Temp. | Humidity | Pressure | Rain* | Wind** | Luminosity | Snow |
|---|---|---|---|---|---|---|---|
| 1778182801 | 10° C | 79% | 1015 hPa | 0 mm | - | 0 W/m² | - |
| 1778181899 | 10.56° C | 79% | 1015 hPa | 0 mm | - | 0 W/m² | - |
| 1778180999 | 10.56° C | 77% | 1014.7 hPa | 0 mm | - | 0 W/m² | - |
| 1778180098 | 11.11° C | 76% | 1014.7 hPa | 0 mm | - | 0 W/m² | - |
| 1778179203 | 11.67° C | 73% | 1014.6 hPa | 0 mm | - | 8 W/m² | - |
| 1778178303 | 12.22° C | 70% | 1014.5 hPa | 0 mm | - | 16 W/m² | - |
| 1778177405 | 12.22° C | 70% | 1014.4 hPa | 0 mm | - | 35 W/m² | - |
| 1778176503 | 12.78° C | 70% | 1014.5 hPa | 0 mm | - | 48 W/m² | - |
| 1778175602 | 12.78° C | 68% | 1014.5 hPa | 0 mm | - | 70 W/m² | - |
| 1778174704 | 13.33° C | 64% | 1014.4 hPa | 0 mm | - | 93 W/m² | - |
| 1778173802 | 13.33° C | 62% | 1014.4 hPa | 0 mm | - | 117 W/m² | - |
| 1778172902 | 13.89° C | 64% | 1014.3 hPa | 0 mm | - | 336 W/m² | - |
| 1778172002 | 13.89° C | 63% | 1014.3 hPa | 0.25 mm | - | 341 W/m² | - |
| 1778171102 | 13.89° C | 66% | 1014.4 hPa | 0.25 mm | - | 229 W/m² | - |
| 1778170201 | 13.89° C | 66% | 1014.3 hPa | 0.25 mm | - | 206 W/m² | - |
| 1778169301 | 13.89° C | 65% | 1014.3 hPa | 0.25 mm | - | 294 W/m² | - |
| 1778168402 | 13.89° C | 65% | 1014.3 hPa | 0 mm | - | 290 W/m² | - |
| 1778167502 | 13.33° C | 64% | 1014.3 hPa | 0 mm | - | 245 W/m² | - |
| 1778166600 | 13.89° C | 63% | 1014.3 hPa | 0 mm | - | 217 W/m² | - |
| 1778165701 | 13.89° C | 63% | 1014.3 hPa | 0 mm | - | 219 W/m² | - |
| 1778164801 | 13.89° C | 63% | 1014.3 hPa | 0 mm | - | 309 W/m² | - |
| 1778163901 | 14.44° C | 63% | 1014.3 hPa | 0 mm | - | 244 W/m² | - |
| 1778163000 | 14.44° C | 64% | 1014.3 hPa | 0 mm | - | 586 W/m² | - |
| 1778162100 | 14.44° C | 64% | 1014.4 hPa | 0 mm | - | 561 W/m² | - |
| 1778161199 | 13.89° C | 67% | 1014.3 hPa | 0 mm | - | 469 W/m² | - |
* Rain latest hour (hover to see other rain measurements)
** Current wind speed in m/s (hover to see current wind gust speed)